sat.trackr.live / text

‹ back to catalog

STARLINK-34440

NORAD 64614 · 2025-137W

PAYLOAD ACTIVE UNKNOWN

§ Identity

Operator
Country
US
Launch date
2025-06-25
Launch site
AFETR
Launch vehicle
Mass (kg)
RCS (m²)

Purposes: comms

External: N2YO · Heavens-Above · Gunter

§ Orbital elements

Epoch: 2026-05-24T20:18:08.101440Z

Period
94.10 min
Inclination
53.1604°
Eccentricity
0.0000970
Mean motion
15.30212262 rev/d
Perigee alt
474.5 km
Apogee alt
475.8 km
Semi-major
6,853.3 km
B*
5.8449e-4
RAAN
341.5706°
Arg perigee
86.0869°
Mean anomaly
274.0243°
Rev number
5,239

§ Raw data

STARLINK-344401 64614U 25137W   26144.84592710  .00016998  00000+0  58449-3 0  99972 64614  53.1604 341.5706 0000970  86.0869 274.0243 15.30212262 52396

JSON: /api/v1/satellites/64614 · /tle

For live sub-satellite position, see the globe view (requires WebGL).

§ Visibility from observer

Set your observer location to see the next 7 days of passes ≥ 10°. The values pass through the URL so the page stays shareable.

No JS? Fill the form by hand. The geolocation button needs JavaScript.